Home > Weather > Choloma > Past weeks

Flag for Honduras Past Weather in Choloma, Honduras — Yesterday and Last 2 Weeks

Now
73 °F

Passing clouds.


Feels Like: 76 °F
Forecast: 75 / 86 °F
Wind: No wind

Location: La Mesa San Pedro Sula

Current Time: Jul 23, 2016 at 5:27:10 AM

Latest Report: Jul 23, 2016 at 5:00 AM


Visibility: N/A

Pressure: 29.95 "Hg

Humidity: 25%

Dew Point: 36 °F

Location of CholomaLocation

Past Weather in Choloma — Graph

°F

Choloma Temperature Yesterday

Maximum temperature yesterday: 91 °F (at 1:00 PM)
Minimum temperature yesterday: 75 °F (at 7:28 AM)
Average temperature yesterday: 83 °F

High & Low Weather Summary for the Past Weeks

 TemperatureHumidityPressure
High93 °F (Jul 11, 11:00 AM)100% (Jul 21, 12:00 AM)30.04 "Hg (Jul 21, 12:00 AM)
Low72 °F (Jul 14, 6:00 AM)34% (Jul 16, 12:00 PM)29.86 "Hg (Jul 11, 4:00 PM)
Average82 °F74%29.96 "Hg
* Reported Jul 8 4:00 AM — Jul 23 3:00 AM, Choloma, Weather by CustomWeather, © 2016

Note: Actual official high and low records may vary slightly from our data, if they occured in-between our weather recording intervals... More about our weather records

Advertising

Choloma Weather History for the Previous 24 Hours

Scroll right to see more
 ConditionsComfort  
Time TempWeatherWind HumidityBarometerVisibility
3:00 AM
Sat, Jul 23
73 °FPassing clouds.No wind100%29.95 "HgN/A
2:00 AM73 °FMild.No wind100%29.95 "HgN/A
1:00 AM75 °FPassing clouds.5 mph100%29.95 "HgN/A
12:00 AM79 °FPassing clouds.No wind89%29.98 "HgN/A
11:00 PM
Fri, Jul 22
77 °FPassing clouds.No wind94%30.01 "HgN/A
10:00 PM81 °FPassing clouds.5 mph89%30.01 "HgN/A
9:00 PM81 °FPassing clouds.5 mph94%29.98 "HgN/A
8:00 PM82 °FPassing clouds.7 mph89%29.95 "HgN/A
7:00 PM82 °FPassing clouds.12 mph89%29.95 "HgN/A
6:00 PM86 °FScattered clouds.12 mph79%29.92 "HgN/A
5:00 PM88 °FBroken clouds.18 mph70%29.89 "HgN/A
4:00 PM90 °FBroken clouds.17 mph67%29.89 "HgN/A
3:00 PM91 °FScattered clouds.16 mph63%29.92 "HgN/A
2:00 PM91 °FScattered clouds.15 mph67%29.98 "HgN/A
1:00 PM91 °FPartly sunny.9 mph67%29.95 "HgN/A
12:00 PM90 °FPartly sunny.8 mph71%29.98 "HgN/A
11:00 AM90 °FPartly sunny.6 mph71%29.98 "HgN/A
10:00 AM88 °FPartly sunny.7 mph75%29.98 "HgN/A
9:00 AM84 °FScattered clouds.No wind89%30.01 "HgN/A
8:00 AM81 °FScattered clouds.No wind89%29.98 "HgN/A
7:28 AM75 °FScattered clouds.No wind74%29.98 "HgN/A
6:00 AM77 °FPassing clouds.No wind100%29.95 "HgN/A
5:00 AM77 °FPassing clouds.No wind100%29.95 "HgN/A
Weather by CustomWeather, © 2016

See weather overviewHow to use our weather pages